Time,TemperatureF,DewpointF,PressureIn,WindDirection,WindDirectionDegrees,WindSpeedMPH,WindSpeedGustMPH,Humidity,HourlyPrecipIn,Conditions,Clouds,dailyrainin,SoftwareType,DateUTC
2013-02-01 00:01:00,46.0,28.0,-100.00,NNW,332,6.0,8.0,50,-99.99,,,-99.99,,2013-02-01 08:01:00,
2013-02-01 00:11:00,47.0,28.0,-100.00,NNW,338,7.0,10.0,48,-99.99,,,-99.99,,2013-02-01 08:11:00,
2013-02-01 00:21:00,48.0,29.0,-100.00,NNW,342,7.0,9.0,48,-99.99,,,-99.99,,2013-02-01 08:21:00,
2013-02-01 00:31:00,48.0,29.0,-100.00,NNW,342,7.0,9.0,48,-99.99,,,-99.99,,2013-02-01 08:31:00,
2013-02-01 00:42:00,48.0,29.0,-100.00,NNW,342,7.0,9.0,48,-99.99,,,-99.99,,2013-02-01 08:42:00,
2013-02-01 05:02:00,49.0,25.0,-100.00,NNW,331,6.0,9.0,38,-99.99,,,-99.99,,2013-02-01 13:02:00,
2013-02-01 05:11:00,48.0,24.0,-100.00,NNW,335,6.0,8.0,38,-99.99,,,-99.99,,2013-02-01 13:11:00,
2013-02-01 05:21:00,48.0,23.0,-100.00,NNW,334,6.0,8.0,37,-99.99,,,-99.99,,2013-02-01 13:21:00,
2013-02-01 05:32:00,48.0,23.0,-100.00,NNW,333,6.0,9.0,37,-99.99,,,-99.99,,2013-02-01 13:32:00,
2013-02-01 05:42:00,48.0,24.0,-100.00,NW,326,5.0,8.0,38,-99.99,,,-99.99,,2013-02-01 13:42:00,
2013-02-01 05:52:00,48.0,24.0,-100.00,NNW,332,6.0,8.0,38,-99.99,,,-99.99,,2013-02-01 13:52:00,
2013-02-01 06:02:00,48.0,24.0,-100.00,NW,324,6.0,8.0,39,-99.99,,,-99.99,,2013-02-01 14:02:00,
2013-02-01 06:11:00,47.0,23.0,-100.00,NNW,328,7.0,9.0,39,-99.99,,,-99.99,,2013-02-01 14:11:00,
2013-02-01 06:31:00,47.0,24.0,-100.00,NNW,328,7.0,10.0,40,-99.99,,,-99.99,,2013-02-01 14:31:00,
2013-02-01 06:42:00,47.0,24.0,-100.00,NW,326,7.0,9.0,40,-99.99,,,-99.99,,2013-02-01 14:42:00,
2013-02-01 06:52:00,47.0,25.0,-100.00,NNW,331,7.0,9.0,42,-99.99,,,-99.99,,2013-02-01 14:52:00,
2013-02-01 07:01:00,47.0,25.0,-100.00,NNW,337,8.0,9.0,42,-99.99,,,-99.99,,2013-02-01 15:01:00,
2013-02-01 07:11:00,48.0,25.0,-100.00,NNW,340,8.0,9.0,41,-99.99,,,-99.99,,2013-02-01 15:11:00,
2013-02-01 07:32:00,48.0,25.0,-100.00,NNW,336,7.0,8.0,41,-99.99,,,-99.99,,2013-02-01 15:32:00,
2013-02-01 07:42:00,47.0,26.0,-100.00,NNW,334,7.0,8.0,43,-99.99,,,-99.99,,2013-02-01 15:42:00,
2013-02-01 07:51:00,47.0,25.0,-100.00,NNW,330,6.0,8.0,42,-99.99,,,-99.99,,2013-02-01 15:51:00,
2013-02-01 08:02:00,48.0,25.0,-100.00,NNW,329,5.0,8.0,41,-99.99,,,-99.99,,2013-02-01 16:02:00,
2013-02-01 08:11:00,50.0,27.0,-100.00,NNW,340,5.0,7.0,40,-99.99,,,-99.99,,2013-02-01 16:11:00,
2013-02-01 08:21:00,50.0,26.0,-100.00,NNW,348,4.0,7.0,39,-99.99,,,-99.99,,2013-02-01 16:21:00,
2013-02-01 08:32:00,51.0,28.0,-100.00,NNW,331,2.0,3.0,40,-99.99,,,-99.99,,2013-02-01 16:32:00,
2013-02-01 08:42:00,52.0,28.0,-100.00,NW,325,2.0,4.0,39,-99.99,,,-99.99,,2013-02-01 16:42:00,
2013-02-01 08:52:00,55.0,29.0,-100.00,NE,47,4.0,6.0,36,-99.99,,,-99.99,,2013-02-01 16:52:00,
2013-02-01 09:02:00,55.0,29.0,-100.00,NE,47,4.0,6.0,36,-99.99,,,-99.99,,2013-02-01 17:02:00,
2013-02-01 09:11:00,56.0,27.0,-100.00,ENE,69,5.0,7.0,33,-99.99,,,-99.99,,2013-02-01 17:11:00,
2013-02-01 09:21:00,57.0,27.0,-100.00,ENE,71,6.0,8.0,32,-99.99,,,-99.99,,2013-02-01 17:21:00,
2013-02-01 09:31:00,57.0,27.0,-100.00,East,86,7.0,9.0,32,-99.99,,,-99.99,,2013-02-01 17:31:00,
2013-02-01 09:41:00,57.0,27.0,-100.00,East,86,8.0,10.0,32,-99.99,,,-99.99,,2013-02-01 17:41:00,
2013-02-01 09:52:00,57.0,27.0,-100.00,East,91,8.0,12.0,32,-99.99,,,-99.99,,2013-02-01 17:52:00,
2013-02-01 10:02:00,58.0,27.0,-100.00,East,91,8.0,11.0,30,-99.99,,,-99.99,,2013-02-01 18:02:00,
2013-02-01 10:11:00,58.0,26.0,-100.00,East,95,9.0,13.0,29,-99.99,,,-99.99,,2013-02-01 18:11:00,
2013-02-01 10:22:00,58.0,25.0,-100.00,East,90,9.0,14.0,28,-99.99,,,-99.99,,2013-02-01 18:22:00,
2013-02-01 10:31:00,59.0,25.0,-100.00,East,88,9.0,14.0,27,-99.99,,,-99.99,,2013-02-01 18:31:00,
2013-02-01 10:42:00,59.0,25.0,-100.00,East,88,9.0,14.0,27,-99.99,,,-99.99,,2013-02-01 18:42:00,
2013-02-01 10:52:00,59.0,25.0,-100.00,ENE,78,9.0,12.0,27,-99.99,,,-99.99,,2013-02-01 18:52:00,
2013-02-01 11:02:00,60.0,25.0,-100.00,ENE,62,8.0,13.0,26,-99.99,,,-99.99,,2013-02-01 19:02:00,
2013-02-01 11:11:00,60.0,24.0,-100.00,ENE,62,9.0,12.0,25,-99.99,,,-99.99,,2013-02-01 19:11:00,
2013-02-01 11:21:00,60.0,24.0,-100.00,ENE,68,9.0,14.0,25,-99.99,,,-99.99,,2013-02-01 19:21:00,
2013-02-01 11:31:00,60.0,25.0,-100.00,NE,56,8.0,14.0,26,-99.99,,,-99.99,,2013-02-01 19:31:00,
2013-02-01 11:41:00,61.0,26.0,-100.00,ENE,58,7.0,11.0,26,-99.99,,,-99.99,,2013-02-01 19:41:00,
2013-02-01 11:51:00,61.0,25.0,-100.00,ENE,66,10.0,15.0,25,-99.99,,,-99.99,,2013-02-01 19:51:00,
2013-02-01 12:01:00,60.0,24.0,-100.00,ENE,62,9.0,14.0,25,-99.99,,,-99.99,,2013-02-01 20:01:00,
2013-02-01 12:11:00,61.0,26.0,-100.00,NE,35,9.0,14.0,26,-99.99,,,-99.99,,2013-02-01 20:11:00,
2013-02-01 12:21:00,61.0,25.0,-100.00,NE,51,9.0,14.0,25,-99.99,,,-99.99,,2013-02-01 20:21:00,
2013-02-01 12:31:00,61.0,26.0,-100.00,NE,42,9.0,15.0,26,-99.99,,,-99.99,,2013-02-01 20:31:00,
2013-02-01 12:41:00,61.0,26.0,-100.00,ENE,74,10.0,15.0,26,-99.99,,,-99.99,,2013-02-01 20:41:00,
2013-02-01 12:52:00,61.0,25.0,-100.00,ENE,75,9.0,12.0,25,-99.99,,,-99.99,,2013-02-01 20:52:00,
2013-02-01 13:01:00,62.0,26.0,-100.00,NE,45,8.0,12.0,25,-99.99,,,-99.99,,2013-02-01 21:01:00,
2013-02-01 13:11:00,61.0,25.0,-100.00,NE,38,9.0,13.0,25,-99.99,,,-99.99,,2013-02-01 21:11:00,
2013-02-01 13:21:00,61.0,24.0,-100.00,ENE,74,9.0,13.0,24,-99.99,,,-99.99,,2013-02-01 21:21:00,
2013-02-01 13:31:00,62.0,24.0,-100.00,ENE,74,9.0,13.0,23,-99.99,,,-99.99,,2013-02-01 21:31:00,
2013-02-01 13:41:00,62.0,24.0,-100.00,ENE,74,9.0,13.0,23,-99.99,,,-99.99,,2013-02-01 21:41:00,
2013-02-01 13:52:00,61.0,23.0,-100.00,East,79,9.0,14.0,23,-99.99,,,-99.99,,2013-02-01 21:52:00,
2013-02-01 14:01:00,61.0,24.0,-100.00,ENE,78,10.0,13.0,24,-99.99,,,-99.99,,2013-02-01 22:01:00,
2013-02-01 14:11:00,61.0,24.0,-100.00,ENE,76,9.0,13.0,24,-99.99,,,-99.99,,2013-02-01 22:11:00,
2013-02-01 14:21:00,62.0,25.0,-100.00,ENE,71,9.0,14.0,24,-99.99,,,-99.99,,2013-02-01 22:21:00,
2013-02-01 14:32:00,61.0,25.0,-100.00,ENE,74,9.0,12.0,25,-99.99,,,-99.99,,2013-02-01 22:32:00,
2013-02-01 14:42:00,62.0,25.0,-100.00,ENE,58,7.0,10.0,24,-99.99,,,-99.99,,2013-02-01 22:42:00,
2013-02-01 14:51:00,61.0,25.0,-100.00,NE,44,8.0,12.0,25,-99.99,,,-99.99,,2013-02-01 22:51:00,
2013-02-01 15:01:00,61.0,25.0,-100.00,NNE,23,9.0,15.0,25,-99.99,,,-99.99,,2013-02-01 23:01:00,
2013-02-01 15:11:00,61.0,25.0,-100.00,NNE,29,8.0,13.0,25,-99.99,,,-99.99,,2013-02-01 23:11:00,
2013-02-01 15:21:00,61.0,25.0,-100.00,NNE,28,8.0,11.0,25,-99.99,,,-99.99,,2013-02-01 23:21:00,
2013-02-01 15:31:00,61.0,25.0,-100.00,NE,41,8.0,11.0,25,-99.99,,,-99.99,,2013-02-01 23:31:00,
2013-02-01 15:41:00,61.0,24.0,-100.00,NNE,25,6.0,10.0,24,-99.99,,,-99.99,,2013-02-01 23:41:00,
2013-02-01 15:52:00,61.0,25.0,-100.00,NNE,31,8.0,11.0,25,-99.99,,,-99.99,,2013-02-01 23:52:00,
2013-02-01 16:01:00,60.0,25.0,-100.00,NNE,25,8.0,12.0,26,-99.99,,,-99.99,,2013-02-02 00:01:00,
2013-02-01 16:11:00,60.0,25.0,-100.00,NE,35,7.0,10.0,26,-99.99,,,-99.99,,2013-02-02 00:11:00,
2013-02-01 16:21:00,60.0,26.0,-100.00,NNE,32,8.0,11.0,27,-99.99,,,-99.99,,2013-02-02 00:21:00,
2013-02-01 16:32:00,60.0,26.0,-100.00,NNE,27,8.0,11.0,27,-99.99,,,-99.99,,2013-02-02 00:32:00,
2013-02-01 16:41:00,59.0,26.0,-100.00,NE,35,7.0,11.0,28,-99.99,,,-99.99,,2013-02-02 00:41:00,
2013-02-01 16:52:00,59.0,26.0,-100.00,NNE,31,7.0,10.0,28,-99.99,,,-99.99,,2013-02-02 00:52:00,
2013-02-01 17:01:00,58.0,26.0,-100.00,NE,35,6.0,9.0,29,-99.99,,,-99.99,,2013-02-02 01:01:00,
2013-02-01 17:11:00,57.0,26.0,-100.00,NNE,31,7.0,9.0,30,-99.99,,,-99.99,,2013-02-02 01:11:00,
2013-02-01 17:21:00,57.0,27.0,-100.00,NNE,32,6.0,9.0,31,-99.99,,,-99.99,,2013-02-02 01:21:00,
2013-02-01 17:31:00,56.0,27.0,-100.00,NE,35,5.0,7.0,32,-99.99,,,-99.99,,2013-02-02 01:31:00,
2013-02-01 17:41:00,56.0,27.0,-100.00,NNE,30,5.0,6.0,32,-99.99,,,-99.99,,2013-02-02 01:41:00,
2013-02-01 17:52:00,56.0,27.0,-100.00,NE,37,4.0,5.0,32,-99.99,,,-99.99,,2013-02-02 01:52:00,
2013-02-01 18:01:00,56.0,27.0,-100.00,NE,34,5.0,6.0,32,-99.99,,,-99.99,,2013-02-02 02:01:00,
2013-02-01 18:11:00,55.0,26.0,-100.00,NNE,26,5.0,6.0,33,-99.99,,,-99.99,,2013-02-02 02:11:00,
2013-02-01 18:21:00,54.0,26.0,-100.00,North,2,5.0,7.0,34,-99.99,,,-99.99,,2013-02-02 02:21:00,
2013-02-01 18:31:00,53.0,27.0,-100.00,North,352,6.0,7.0,36,-99.99,,,-99.99,,2013-02-02 02:31:00,
2013-02-01 18:41:00,52.0,27.0,-100.00,NNW,345,6.0,7.0,38,-99.99,,,-99.99,,2013-02-02 02:41:00,
2013-02-01 18:52:00,52.0,28.0,-100.00,NNW,337,6.0,7.0,39,-99.99,,,-99.99,,2013-02-02 02:52:00,
2013-02-01 19:02:00,52.0,28.0,-100.00,NNW,336,6.0,7.0,40,-99.99,,,-99.99,,2013-02-02 03:02:00,
2013-02-01 19:11:00,51.0,28.0,-100.00,NNW,332,6.0,7.0,41,-99.99,,,-99.99,,2013-02-02 03:11:00,
2013-02-01 19:21:00,51.0,28.0,-100.00,NNW,336,6.0,7.0,40,-99.99,,,-99.99,,2013-02-02 03:21:00,
2013-02-01 19:32:00,51.0,28.0,-100.00,NNW,336,6.0,7.0,40,-99.99,,,-99.99,,2013-02-02 03:32:00,
2013-02-01 19:42:00,51.0,28.0,-100.00,NNW,330,6.0,7.0,41,-99.99,,,-99.99,,2013-02-02 03:42:00,
2013-02-01 19:51:00,51.0,28.0,-100.00,NNW,332,6.0,7.0,41,-99.99,,,-99.99,,2013-02-02 03:51:00,
2013-02-01 20:01:00,51.0,28.0,-100.00,NNW,332,6.0,7.0,41,-99.99,,,-99.99,,2013-02-02 04:01:00,
2013-02-01 20:11:00,51.0,28.0,-100.00,NNW,334,6.0,7.0,41,-99.99,,,-99.99,,2013-02-02 04:11:00,
2013-02-01 20:21:00,51.0,28.0,-100.00,NNW,341,7.0,8.0,40,-99.99,,,-99.99,,2013-02-02 04:21:00,
2013-02-01 20:32:00,52.0,28.0,-100.00,NNW,339,6.0,8.0,40,-99.99,,,-99.99,,2013-02-02 04:32:00,
2013-02-01 20:41:00,52.0,28.0,-100.00,NNW,339,6.0,8.0,40,-99.99,,,-99.99,,2013-02-02 04:41:00,
2013-02-01 20:51:00,52.0,27.0,-100.00,NNW,346,7.0,8.0,38,-99.99,,,-99.99,,2013-02-02 04:51:00,
2013-02-01 21:02:00,52.0,28.0,-100.00,NNW,343,6.0,8.0,39,-99.99,,,-99.99,,2013-02-02 05:02:00,
2013-02-01 21:11:00,51.0,28.0,-100.00,NNW,335,6.0,8.0,41,-99.99,,,-99.99,,2013-02-02 05:11:00,
2013-02-01 21:22:00,52.0,28.0,-100.00,NNW,342,7.0,8.0,39,-99.99,,,-99.99,,2013-02-02 05:22:00,
2013-02-01 21:32:00,51.0,26.0,-100.00,NNW,336,7.0,8.0,38,-99.99,,,-99.99,,2013-02-02 05:32:00,
2013-02-01 21:41:00,51.0,26.0,-100.00,NNW,336,7.0,8.0,38,-99.99,,,-99.99,,2013-02-02 05:41:00,
2013-02-01 21:52:00,51.0,26.0,-100.00,NNW,337,7.0,9.0,38,-99.99,,,-99.99,,2013-02-02 05:52:00,
2013-02-01 22:01:00,51.0,26.0,-100.00,NNW,340,7.0,9.0,37,-99.99,,,-99.99,,2013-02-02 06:01:00,
2013-02-01 22:11:00,52.0,25.0,-100.00,NNW,342,7.0,9.0,35,-99.99,,,-99.99,,2013-02-02 06:11:00,
2013-02-01 22:21:00,52.0,25.0,-100.00,NNW,346,7.0,9.0,34,-99.99,,,-99.99,,2013-02-02 06:21:00,
2013-02-01 22:31:00,51.0,24.0,-100.00,NNW,340,7.0,8.0,35,-99.99,,,-99.99,,2013-02-02 06:31:00,
2013-02-01 22:41:00,51.0,26.0,-100.00,NNW,337,7.0,8.0,37,-99.99,,,-99.99,,2013-02-02 06:41:00,
2013-02-01 22:51:00,50.0,26.0,-100.00,NNW,332,7.0,8.0,39,-99.99,,,-99.99,,2013-02-02 06:51:00,
2013-02-01 23:01:00,50.0,25.0,-100.00,NNW,334,7.0,8.0,38,-99.99,,,-99.99,,2013-02-02 07:01:00,
2013-02-01 23:11:00,50.0,26.0,-100.00,NNW,333,6.0,8.0,39,-99.99,,,-99.99,,2013-02-02 07:11:00,
2013-02-01 23:21:00,50.0,26.0,-100.00,NNW,334,7.0,9.0,39,-99.99,,,-99.99,,2013-02-02 07:21:00,
2013-02-01 23:31:00,50.0,26.0,-100.00,NNW,339,7.0,9.0,39,-99.99,,,-99.99,,2013-02-02 07:31:00,
2013-02-01 23:41:00,50.0,27.0,-100.00,NNW,333,7.0,9.0,40,-99.99,,,-99.99,,2013-02-02 07:41:00,
2013-02-01 23:51:00,49.0,26.0,-100.00,NNW,330,7.0,8.0,41,-99.99,,,-99.99,,2013-02-02 07:51:00,